Location: Ward Pound Ridge Reservation
(41.2500°N, 73.6000°W)
Time: 15:19:55
(UTC-04:00)

Envisat - Pass Details

Date: 14 October 2017
Orbit: 764 x 766 km, 98.2° (Epoch: 22 October)

Event Time Altitude Azimuth Distance (km) Brightness Sun altitude
Exits shadow 22:00:13 15° 293° (WNW) 1,965 5.7 -41.9°
Drops below altitude 10° 22:01:52 10° 310° (NW) 2,307 6.1 -42.1°
Sets 22:04:57 0° 330° (NNW) 3,239 6.9 -42.6°
